RH
50 49 48 47 46 45 44 43 42 42 41 40 40 39 39 38 38 37 36 35 35 34 33 32 31 30 29 28 27 26 26 25 24 23 23 22 21 21 20 19 18 18 18 17 17 16 16 16 16 16 15 15 15 14 14 13 14 14 14 16 16 17 17 18 19 19 19 18 17 16 15 14 13 13 12 11 10 9 9 8 8 8 7 7 6 5
48 47 47 45 44 44 43 43 42 41 41 40 39 39 38 37 36 35 34 33 32 31 31 29 29 27 26 25 24 24 23 22 22 21 21 20 20 19 18 18 17 17 17 17 17 17 17 17 16 16 15 15 15 15 15 15 16 16 17 18 19 19 19 19 19 18 17 16 15 13 12 11 10 10 9 8 8 7 7 6 6 6 5 5 4 4
47 46 46 45 44 43 42 42 41 40 40 39 38 37 36 35 34 33 32 30 29 29 28 27 26 24 23 22 21 21 20 20 19 19 19 18 18 17 17 17 16 17 17 17 17 17 17 16 16 16 16 17 17 17 18 18 18 18 18 18 18 18 17 16 15 14 13 12 11 10 9 9 7 7 6 6 6 5 5 5 5 5 4 4 4 4
46 46 44 43 43 42 41 40 39 39 37 36 35 34 32 31 30 30 29 28 27 26 26 25 24 22 20 19 18 17 17 17 17 17 17 17 18 17 17 17 17 17 16 16 16 17 17 18 19 20 21 21 21 21 21 20 20 18 18 16 15 15 13 12 11 10 10 8 8 7 6 6 6 5 5 4 4 4 4 4 4 4 4 4 4 4
45 44 43 42 41 40 39 38 37 35 34 33 32 30 29 29 27 27 26 26 24 23 21 21 21 20 18 15 16 16 16 17 18 18 18 17 17 17 17 17 17 18 18 19 20 21 22 23 23 23 23 23 22 22 20 19 18 16 15 13 12 11 10 9 8 7 7 6 6 6 5 5 5 4 4 4 4 4 4 4 4 4 4 4 4 4
44 42 41 40 38 37 35 34 33 32 31 30 29 28 27 26 25 24 22 21 20 19 18 18 20 22 21 18 18 18 19 19 18 18 18 18 19 20 21 21 22 22 22 23 23 23 23 22 21 20 18 18 17 16 15 14 13 11 10 9 9 8 7 7 6 6 6 5 5 5 5 4 4 4 4 4 4 4 4 4 4 4 4 4 4 4
40 38 37 35 34 33 32 31 30 29 29 28 26 25 23 22 20 19 18 18 18 18 19 19 20 21 21 20 20 20 21 23 24 25 27 28 29 29 29 27 26 24 23 22 21 19 18 17 16 15 13 12 11 10 10 9 8 8 7 7 7 6 6 6 5 5 5 5 5 4 5 5 4 4 4 4 4 4 4 4 4 4 4 4 3 4
35 34 32 31 30 30 29 29 28 26 25 23 21 20 19 19 19 19 19 19 20 19 19 20 20 22 24 26 28 29 30 31 31 32 32 31 29 27 25 23 21 20 18 16 15 13 12 11 10 9 9 8 8 7 7 6 6 6 6 5 6 5 5 6 5 6 5 5 6 5 5 5 5 5 5 5 4 4 4 4 4 4 4 4 4 4
32 32 31 30 29 28 26 24 22 21 20 19 19 20 20 20 20 20 20 20 22 24 25 28 30 32 34 34 33 32 30 28 25 24 22 20 19 17 15 14 13 12 11 10 9 9 8 8 8 7 7 7 7 7 6 6 6 6 6 6 6 5 5 6 6 6 6 6 6 6 6 6 5 5 5 5 5 5 5 4 4 4 4 4 4 4
31 29 28 25 23 21 20 19 20 20 21 21 21 21 21 21 22 24 27 31 36 39 39 37 35 33 30 27 24 22 19 17 15 13 13 12 11 10 9 9 8 8 8 8 7 7 7 7 7 7 7 7 7 7 7 8 8 7 7 7 7 7 7 7 7 7 7 7 6 6 6 6 6 6 6 6 5 5 5 5 5 5 5 5 5 5
23 22 21 20 21 21 21 22 22 22 22 22 24 26 29 32 35 38 40 42 43 42 36 30 26 22 18 15 14 12 11 10 9 9 9 10 9 9 9 8 8 8 7 8 7 7 7 7 8 8 8 8 8 9 9 9 9 9 9 9 9 9 8 8 8 8 8 8 8 7 7 7 7 7 7 6 6 6 5 5 6 5 6 6 6 6
22 23 24 24 24 24 23 23 24 25 28 32 35 39 41 42 41 40 37 33 31 27 23 18 16 14 12 10 9 8 8 8 8 9 9 10 10 10 10 9 9 9 9 9 8 8 8 8 8 8 9 9 9 9 9 9 9 9 9 9 9 8 8 8 8 8 8 8 8 8 7 7 7 7 7 7 7 6 6 6 6 6 6 7 7 7
25 24 24 24 25 27 30 34 38 41 42 42 41 37 34 31 27 24 21 18 17 17 17 14 13 13 13 12 10 9 9 8 9 9 9 10 10 10 10 10 9 9 9 9 9 8 9 9 9 9 8 8 8 8 7 8 7 7 8 8 8 8 8 8 8 8 8 8 8 8 8 7 7 7 7 8 8 7 7 7 7 7 7 7 7 7
25 28 31 35 39 42 44 44 43 40 36 31 27 23 19 16 13 12 11 11 12 14 16 16 14 15 15 13 11 10 10 10 9 9 9 8 9 9 8 9 8 8 8 8 8 8 8 9 9 9 8 8 8 7 7 7 7 7 7 7 7 7 7 7 7 8 8 8 8 8 9 9 9 10 9 10 9 9 9 9 9 9 8 8 8 8
38 42 45 45 44 41 36 31 27 23 20 17 15 14 12 12 11 11 11 10 11 13 14 15 15 15 17 14 10 10 10 10 9 8 8 8 7 8 8 8 8 7 8 7 8 8 8 9 8 8 8 8 8 8 7 7 7 7 7 7 7 6 6 6 6 6 6 7 7 7 8 9 9 10 11 12 12 11 11 11 10 10 9 9 9 9
46 42 38 33 28 25 21 19 17 16 16 15 14 14 13 13 12 12 13 12 11 12 12 14 13 18 29 24 11 10 11 10 10 8 7 8 7 8 7 7 7 7 7 7 8 9 8 8 7 7 8 8 8 8 8 8 8 8 8 7 7 7 7 6 6 6 6 6 6 6 6 7 7 8 9 10 11 11 12 12 12 11 10 10 9 9
34 28 24 21 18 18 17 16 17 17 17 17 15 15 13 13 13 13 14 13 12 12 11 13 13 21 44 39 13 10 15 13 13 12 11 12 11 11 10 8 9 9 10 11 10 10 9 8 8 8 8 8 9 9 9 9 9 8 9 8 8 8 8 8 7 7 7 7 7 6 6 6 6 6 7 7 8 9 10 11 12 12 12 11 11 10
22 20 19 19 18 19 18 19 19 18 18 17 16 15 14 14 14 13 14 12 12 11 10 14 17 30 55 45 14 10 15 14 16 18 19 20 17 15 13 12 12 12 13 14 13 12 11 10 11 10 10 10 10 9 9 9 9 8 9 8 9 9 8 8 8 9 9 8 7 7 7 6 6 6 6 6 6 6 7 8 9 10 11 11 11 11
20 21 21 21 21 20 20 20 20 20 20 19 18 17 15 14 14 14 15 13 12 11 10 12 19 40 62 45 16 14 16 12 16 20 21 21 19 19 18 16 16 15 15 15 13 13 12 12 12 11 11 11 11 11 9 9 8 7 7 7 7 8 7 8 8 9 9 9 8 8 7 7 6 6 6 6 6 6 6 7 7 8 9 9 10 10
22 23 24 24 23 22 21 21 23 25 25 23 22 19 16 16 16 18 19 17 15 14 12 11 17 39 58 42 21 21 20 16 19 20 19 19 20 21 20 19 18 16 15 15 13 14 13 12 12 11 11 11 11 11 10 10 9 7 7 6 6 6 6 7 7 8 8 8 8 8 7 7 7 7 6 6 6 6 6 7 6 7 7 8 8 8
23 23 24 26 27 25 24 25 27 29 29 28 25 22 20 21 22 23 24 23 22 21 18 14 15 32 46 35 24 26 24 22 22 19 19 19 19 21 20 19 18 16 15 14 13 13 12 12 12 11 11 10 10 10 9 9 9 8 7 6 6 6 6 6 7 7 7 7 6 6 6 6 6 6 6 6 6 6 6 7 7 7 7 7 7 8
23 24 28 32 34 32 30 31 33 34 35 33 30 28 28 30 29 27 26 25 25 25 23 19 18 27 34 29 24 26 26 24 22 20 21 20 19 20 20 19 17 16 15 13 13 13 12 12 12 11 10 10 9 9 9 9 8 8 8 7 6 6 6 6 6 6 6 6 6 5 5 5 5 5 5 5 6 6 6 6 6 7 7 7 8 8
29 31 34 37 38 36 35 36 37 39 40 40 37 35 34 34 32 30 27 24 25 25 25 23 21 23 26 23 22 24 25 24 22 22 22 20 19 18 17 17 16 15 14 13 12 12 11 11 10 9 9 8 8 8 8 8 8 7 7 6 6 7 7 6 6 5 5 5 5 5 5 4 4 4 4 5 5 5 5 5 5 6 7 7 8 8
34 34 34 36 36 36 36 37 39 41 42 40 37 35 34 34 32 30 28 26 25 25 25 24 23 22 21 20 21 24 24 24 23 22 20 18 17 15 15 15 14 13 13 12 11 10 10 10 9 8 8 7 7 7 7 8 8 7 7 7 7 7 7 6 6 5 5 5 5 5 5 4 4 4 4 4 4 4 4 4 5 5 6 7 8 8
32 31 31 31 30 30 30 31 32 34 34 32 31 31 31 30 29 28 28 26 25 24 24 23 22 21 20 20 21 22 22 22 21 20 19 17 15 14 13 13 12 12 11 10 10 9 9 8 8 7 7 6 6 6 6 7 7 7 7 7 7 7 7 6 6 6 5 5 5 4 5 4 4 4 4 4 4 4 4 4 4 4 5 6 7 8
29 28 28 27 26 25 24 24 24 24 24 24 25 26 27 26 26 26 25 24 23 21 21 22 21 19 19 19 19 19 18 18 17 16 16 15 14 13 12 11 11 10 9 9 8 8 7 7 7 7 6 6 6 5 5 5 5 6 5 5 6 5 6 5 5 5 5 4 4 4 4 4 3 3 3 3 3 3 4 4 4 4 4 5 6 6
26 26 25 24 24 23 21 21 21 20 20 20 21 23 24 24 25 25 24 23 22 20 20 22 21 19 18 17 16 15 13 13 13 12 12 12 12 11 10 9 9 8 7 7 6 6 6 6 6 6 5 5 5 5 5 4 4 5 4 4 5 4 4 5 4 4 4 4 3 3 3 3 3 3 3 3 3 3 3 3 4 4 4 5 5 5
25 24 23 23 24 22 20 20 20 20 20 21 22 23 24 24 24 25 24 23 22 22 21 20 19 17 14 13 12 12 11 10 10 10 10 10 9 9 8 7 6 5 5 5 5 4 4 4 4 4 4 4 4 3 3 3 3 3 4 3 4 4 4 4 4 4 4 4 3 3 3 3 3 3 3 3 3 3 3 3 3 4 4 4 4 5
25 24 22 22 24 22 19 19 21 21 22 23 26 26 25 25 24 23 23 23 24 24 21 17 15 13 12 11 11 11 10 10 10 9 9 9 8 7 5 5 4 4 4 3 4 3 3 3 3 3 3 3 3 3 2 3 3 2 3 3 2 3 3 3 3 3 3 3 3 3 3 2 3 3 3 3 3 3 3 2 3 3 3 4 4 5
26 26 23 21 23 23 20 19 22 23 22 23 26 27 26 26 26 25 24 25 25 23 19 16 14 13 12 12 12 11 10 10 9 8 7 7 6 5 4 3 3 3 3 3 3 3 3 3 3 2 3 2 2 3 2 2 3 2 2 3 2 3 2 2 3 2 3 3 3 3 2 2 2 2 2 3 3 3 3 2 3 3 3 4 4 4
29 28 26 22 22 23 20 19 22 23 22 23 25 26 27 27 26 25 22 20 19 17 14 13 12 12 12 11 10 9 8 7 6 6 6 6 5 4 3 3 3 3 3 3 3 3 3 3 3 2 3 3 2 3 3 2 3 3 3 3 2 3 3 2 3 2 2 2 2 2 2 2 2 2 2 2 2 3 3 2 2 2 2 3 3 4
31 31 30 26 23 21 19 18 20 22 22 24 24 23 23 22 20 18 16 14 14 12 10 10 10 9 9 7 7 6 5 5 5 5 6 4 3 3 3 3 3 3 3 3 2 3 3 2 3 3 3 3 3 3 3 2 3 3 2 3 3 3 3 2 3 3 2 2 2 2 2 2 2 2 2 2 2 2 3 2 2 2 2 2 3 3
35 34 34 29 23 20 18 18 19 20 20 21 20 17 16 16 15 15 15 15 15 12 10 9 8 7 7 5 5 5 4 4 4 4 4 3 2 3 2 2 3 2 2 3 2 2 3 2 3 2 2 3 2 2 3 2 2 2 2 3 2 2 2 2 2 2 2 2 2 2 2 2 2 2 2 2 2 2 2 2 2 2 2 2 3 3
37 37 36 32 26 20 18 18 18 18 17 16 15 15 15 16 15 14 16 18 17 12 9 8 7 7 7 6 5 5 3 3 4 3 3 2 2 2 2 2 3 2 2 2 2 2 3 2 3 3 2 2 2 2 2 2 2 2 2 3 2 2 2 2 2 2 2 2 2 2 2 2 2 2 2 2 2 2 2 2 2 3 2 2 3 3
37 38 37 33 28 22 19 19 18 17 17 17 17 19 19 20 19 17 17 19 17 11 8 8 7 6 6 5 5 4 3 3 4 4 3 2 2 2 2 2 2 2 2 2 2 3 3 3 3 2 2 3 2 2 2 3 3 3 3 3 3 3 3 2 3 2 2 2 2 2 2 2 2 2 2 2 2 2 2 2 2 2 2 2 3 3
37 39 37 33 30 24 20 20 19 18 20 20 20 19 18 18 16 12 11 13 13 11 8 7 6 5 5 5 5 4 3 3 4 4 3 3 3 2 2 2 2 2 3 3 2 3 3 3 3 2 3 3 3 3 3 3 3 3 3 3 3 3 3 3 3 3 2 2 2 2 2 2 2 2 2 2 2 2 2 2 2 2 2 2 3 3
38 39 37 33 31 26 21 21 19 18 18 17 16 16 14 13 11 8 8 11 12 9 7 6 6 5 5 5 4 3 3 3 3 4 3 3 3 3 3 3 3 3 3 3 3 3 3 3 3 3 3 3 3 3 3 3 3 3 3 3 3 3 3 3 3 2 2 2 2 2 2 2 2 2 2 2 2 2 2 2 2 2 2 2 2 2
39 39 38 33 31 28 24 22 20 17 17 16 16 16 14 13 13 12 12 14 12 9 7 6 5 5 4 3 3 3 3 3 3 3 3 3 3 3 3 3 3 3 3 3 3 3 4 3 3 3 3 3 3 3 3 3 3 3 3 3 3 2 2 3 2 2 2 2 2 2 2 2 2 2 2 2 2 2 2 2 2 2 2 2 2 2
37 36 36 33 30 28 26 24 22 20 20 20 20 18 16 17 17 14 12 12 11 8 6 5 4 3 3 3 3 3 2 3 3 3 3 3 3 3 3 4 4 4 3 3 3 3 4 4 4 4 3 3 3 3 3 3 3 3 3 2 2 2 2 2 2 2 2 2 2 2 2 2 2 2 2 2 2 2 2 2 2 2 2 2 2 2
35 33 33 31 28 28 27 24 23 24 24 24 23 21 19 18 18 14 9 8 7 5 4 4 3 3 3 2 3 3 2 2 2 2 3 3 3 3 3 3 4 4 4 4 4 4 4 4 4 4 3 3 3 3 3 3 3 2 2 2 2 2 2 2 2 2 2 2 2 2 2 2 2 2 2 2 2 2 2 2 2 2 2 2 2 2
36 33 32 29 28 29 30 26 24 27 29 27 26 24 20 17 15 13 9 7 5 4 4 3 3 2 2 3 2 2 2 2 2 2 2 3 3 3 3 3 3 3 3 4 4 4 4 4 4 4 3 3 3 3 2 2 2 2 2 2 2 2 2 2 2 2 2 2 2 2 2 2 2 2 2 2 2 2 2 2 2 2 2 2 2 2
37 33 32 31 30 31 32 28 24 26 30 31 29 26 21 16 14 12 10 7 5 4 4 3 3 2 2 3 3 2 3 2 2 2 2 3 3 3 3 3 3 3 4 4 4 4 4 4 4 3 3 3 2 2 2 2 2 2 2 2 2 2 2 2 2 2 2 2 2 2 2 2 2 2 2 2 2 2 2 2 2 2 2 2 2 3
39 36 34 34 32 31 31 29 25 27 32 35 32 26 20 18 16 13 9 6 5 4 4 3 3 2 2 3 3 3 3 2 3 3 3 3 3 3 3 3 3 4 4 4 5 4 4 4 4 3 3 3 2 2 2 3 3 2 2 2 2 2 2 2 2 2 2 2 2 2 2 2 2 2 2 2 2 2 2 2 2 2 2 2 2 2
43 39 36 35 34 34 33 31 30 34 39 37 32 25 19 17 15 11 7 5 4 4 3 3 3 2 2 2 3 3 3 3 3 3 2 3 3 3 3 3 3 4 5 4 5 4 4 4 4 4 3 3 3 3 2 2 3 2 2 2 2 2 2 2 2 2 2 2 2 2 2 2 2 2 2 2 2 2 2 2 2 2 2 2 2 2
45 41 38 38 38 39 37 33 31 36 38 33 27 21 15 13 12 9 6 5 4 3 3 3 3 2 2 2 3 3 3 3 3 3 3 3 3 3 3 3 4 4 5 4 4 4 4 4 4 4 4 3 3 3 3 2 2 2 2 2 2 2 2 2 2 2 2 2 2 2 2 2 2 2 2 2 2 2 2 2 2 2 2 2 2 2
49 47 44 41 39 38 37 33 29 31 32 28 23 17 11 10 10 8 5 4 4 3 3 2 2 3 2 2 3 3 3 3 3 3 3 2 3 3 3 4 4 4 4 4 5 5 4 4 4 4 4 3 3 3 3 2 2 2 2 2 2 2 2 2 2 2 2 2 2 2 2 2 2 2 2 2 2 2 2 2 2 2 2 2 2 3
55 52 47 42 39 37 33 29 26 27 28 25 19 13 10 8 8 7 5 4 3 3 3 3 3 3 3 3 3 3 3 3 3 3 3 3 3 3 3 4 4 4 5 5 5 5 5 5 4 4 4 4 3 3 3 2 2 2 2 2 2 2 2 2 2 2 2 2 2 2 2 2 2 2 2 2 2 2 2 2 2 2 2 2 3 3
56 53 47 40 38 35 30 25 23 23 24 21 16 11 8 7 7 6 5 4 4 3 3 3 3 3 3 3 3 3 3 3 3 3 3 2 3 3 3 4 4 4 5 5 5 5 5 5 5 4 4 4 3 3 3 3 2 2 2 2 2 2 2 2 2 2 2 2 2 2 2 2 2 2 2 2 2 2 2 2 2 3 2 3 3 3
56 53 45 38 34 30 26 22 19 19 20 20 18 14 9 7 6 5 5 4 4 4 4 4 3 3 3 3 3 3 3 3 3 3 3 2 3 3 3 4 4 4 4 5 5 5 5 5 5 5 4 4 3 3 3 3 2 2 2 2 2 2 2 2 2 2 2 2 2 2 2 2 2 2 2 2 2 2 2 2 2 3 3 3 3 3
56 50 43 37 33 30 25 23 22 21 21 23 23 18 11 8 7 6 5 5 4 4 4 4 3 4 3 3 3 3 3 3 3 3 3 3 3 3 3 4 4 4 5 5 6 6 5 6 6 5 5 4 4 3 3 3 3 3 2 2 2 2 2 2 2 2 2 2 2 3 2 2 2 2 2 2 2 2 2 2 3 3 3 3 3 3
54 50 45 42 39 34 28 24 24 25 25 26 26 21 14 10 8 7 6 6 5 4 4 3 3 4 3 3 3 3 3 3 3 3 3 3 3 3 4 4 4 4 5 5 5 6 6 6 6 6 5 5 4 4 4 3 3 3 3 2 2 2 2 2 2 2 2 2 2 3 3 3 2 2 2 2 2 2 3 3 3 3 3 3 3 3
Wind_Speed
32 34 36 38 40 42 45 47 48 49 51 52 54 56 58 58 61 64 65 67 67 68 71 74 77 78 78 78 79 80 81 82 82 83 84 85 86 87 88 89 90 91 92 93 94 95 95 95 95 96 97 97 98 98 98 98 98 98 99 99 99 99 99 99 100 100 101 101 101 100 100 100 100 100 100 100 99 99 99 99 99 99 100 100 100 100
36 38 41 42 44 46 49 51 53 54 55 57 58 60 62 63 64 67 69 71 71 71 74 77 79 80 82 82 81 81 82 83 85 85 86 87 88 89 90 91 92 92 93 94 95 96 97 97 97 98 98 99 100 100 100 100 100 100 101 101 101 102 102 102 102 103 103 103 103 102 102 102 101 101 101 100 100 99 98 98 97 98 98 98 99 99
40 42 45 47 48 50 53 55 57 59 60 61 63 64 66 67 68 70 73 75 75 75 77 79 81 82 84 84 82 81 83 85 87 87 88 89 90 91 92 93 94 94 95 95 96 97 98 99 99 99 100 100 101 101 101 102 102 102 103 103 104 104 104 104 104 104 104 104 104 103 102 102 102 101 101 100 99 98 97 95 95 95 96 96 97 96
45 47 49 51 53 55 57 59 61 63 65 66 67 68 70 71 72 72 75 77 79 79 79 80 83 85 86 85 83 83 85 87 88 89 90 91 91 92 93 95 96 96 97 97 98 98 99 100 101 102 103 103 104 104 104 104 105 105 106 106 106 106 107 106 106 105 105 104 103 102 102 101 100 100 99 98 98 96 95 93 93 93 94 94 94 94
49 51 53 55 57 59 61 63 65 67 69 71 72 73 74 75 76 76 76 78 80 81 80 81 83 87 88 86 85 86 87 89 91 92 92 93 93 94 95 96 97 98 99 99 99 100 101 102 103 104 105 106 106 107 107 108 108 108 108 108 108 108 107 107 106 105 104 103 102 101 100 100 99 98 97 97 96 95 93 92 92 92 92 92 92 92
54 56 57 59 61 63 64 66 68 70 72 74 76 77 77 78 79 79 79 80 81 82 83 83 83 87 90 89 88 89 91 92 93 94 94 95 96 97 98 99 100 101 101 101 102 103 104 105 106 107 107 107 108 108 109 109 109 109 108 108 108 107 106 106 105 104 103 102 101 100 99 99 98 97 96 96 95 94 92 91 91 91 91 91 91 91
58 59 61 63 65 66 68 69 71 72 73 75 77 78 79 80 80 81 82 82 83 84 85 86 86 88 90 90 90 91 93 94 95 95 96 97 99 101 102 103 104 104 105 105 105 106 107 108 108 109 109 109 109 109 109 108 108 108 107 107 106 105 104 104 103 103 102 101 100 99 99 98 97 97 96 96 95 93 92 91 90 90 90 90 91 90
61 63 65 67 68 69 70 72 73 74 75 77 78 79 80 82 83 83 84 85 86 88 88 88 89 90 91 92 92 93 94 95 96 97 98 99 101 103 104 105 106 106 107 107 107 107 107 107 107 107 107 107 107 107 107 106 106 106 105 105 104 103 103 102 101 101 101 100 99 99 98 97 97 96 96 95 94 93 92 91 90 90 90 90 90 89
65 66 68 69 71 71 72 73 75 76 77 79 80 81 82 84 85 86 86 87 88 90 91 91 93 94 95 95 96 97 97 98 98 98 99 100 101 102 103 103 103 103 103 103 103 103 103 103 103 103 103 104 104 104 104 104 104 104 103 103 102 102 101 101 100 100 99 99 99 98 98 97 97 96 95 95 94 93 92 90 89 89 89 89 89 89
66 68 69 71 72 74 75 76 77 79 80 81 83 84 85 86 87 87 87 88 89 93 95 95 97 98 99 99 99 99 98 98 97 96 95 96 96 97 97 97 97 97 97 97 97 97 97 97 97 98 98 99 99 100 100 100 101 101 101 101 101 100 100 100 100 99 99 99 99 98 98 97 97 96 95 94 94 92 91 90 89 88 88 88 88 88
67 69 71 73 75 77 78 80 81 82 82 83 84 85 86 87 88 89 89 90 92 95 98 98 99 100 100 99 98 97 95 93 92 91 90 91 91 92 92 92 92 92 92 92 92 92 92 93 93 93 94 95 95 95 96 96 97 97 97 98 98 99 99 99 99 98 99 99 98 98 98 97 97 96 95 95 94 92 91 89 88 87 86 86 87 87
71 73 75 76 78 80 82 83 84 84 84 85 86 87 88 89 90 90 91 91 91 93 95 95 94 96 97 97 96 94 92 90 89 88 87 88 89 90 90 90 89 89 89 88 88 88 88 89 89 90 90 91 91 92 93 93 93 94 94 95 96 96 97 97 97 96 97 97 97 96 96 96 96 95 94 93 92 91 89 88 86 85 84 84 84 85
74 76 77 79 80 81 82 84 85 87 88 89 90 91 91 90 89 88 87 85 84 85 88 89 88 90 93 95 94 92 90 89 88 86 85 86 87 87 87 87 87 87 86 86 85 84 84 85 86 86 87 88 89 90 90 90 90 90 91 91 91 91 92 92 92 92 92 93 93 93 93 93 93 92 92 91 90 89 87 86 84 83 83 82 82 82
75 76 77 79 81 82 84 85 86 88 89 90 90 90 90 87 85 83 81 80 77 78 82 85 84 86 89 92 92 90 88 88 88 87 85 85 86 85 85 85 84 84 84 84 83 83 82 83 84 84 85 86 87 88 88 87 86 86 86 86 86 86 86 86 86 86 86 87 87 87 87 87 87 87 87 87 87 86 85 84 82 82 81 81 80 81
75 76 78 80 83 85 86 86 86 86 86 87 87 86 86 85 83 81 81 80 77 75 78 80 81 83 86 89 88 86 86 86 86 86 84 83 83 83 83 82 82 82 82 81 81 82 82 82 82 82 83 84 86 86 86 85 84 83 83 83 83 83 83 82 82 82 81 81 81 81 81 81 81 81 81 82 83 83 83 82 82 81 81 80 80 80
80 80 80 81 82 83 83 83 82 83 83 84 85 84 84 83 82 81 81 82 80 77 76 76 76 79 84 87 85 82 82 84 84 83 82 82 82 82 82 81 81 81 81 81 82 83 83 82 81 81 82 84 85 85 85 85 85 84 83 83 83 83 82 81 80 79 79 78 79 79 79 78 78 78 78 78 78 79 80 80 81 81 80 79 79 79
79 80 80 79 79 79 79 79 80 81 82 83 84 84 83 81 81 80 80 81 80 77 74 72 73 75 81 87 84 81 82 84 85 86 84 84 85 85 85 85 84 84 84 85 87 87 87 85 83 83 84 85 86 86 87 87 87 86 85 85 84 84 84 84 82 81 80 80 79 79 79 78 78 77 77 76 76 76 76 77 78 79 79 79 78 78
73 75 77 77 77 77 77 77 79 81 82 83 83 83 82 81 80 80 80 79 78 76 72 70 72 74 79 86 85 83 84 84 85 87 87 87 88 89 90 90 89 89 88 89 90 91 91 90 88 88 88 89 90 90 90 89 89 88 88 87 87 87 87 86 85 85 85 84 83 82 81 80 78 78 77 76 75 74 74 75 75 76 78 78 78 77
69 71 74 76 77 76 75 75 77 80 82 83 84 84 83 81 80 80 82 83 80 79 74 71 72 72 77 87 89 88 89 87 86 88 88 89 90 90 92 93 93 92 91 92 93 93 94 94 93 93 92 93 94 94 94 93 92 90 89 89 88 88 87 86 86 87 88 88 87 85 84 82 81 79 78 77 76 74 74 74 74 74 76 77 78 78
67 68 70 74 77 76 75 74 76 79 81 83 84 85 84 84 84 83 86 88 87 87 84 78 74 70 76 88 92 91 93 92 90 91 92 92 92 93 94 95 96 95 95 95 95 95 96 96 96 96 95 95 96 96 97 96 96 94 92 91 89 89 88 87 87 88 89 89 88 87 86 85 84 82 81 79 78 76 75 74 73 73 74 75 76 78
66 66 68 72 75 77 77 76 77 79 81 83 85 87 87 87 88 87 87 89 90 91 92 89 82 73 77 88 92 92 94 94 94 95 95 95 95 95 97 97 98 99 98 98 98 98 98 98 99 99 98 98 98 98 98 98 98 97 96 94 92 91 90 90 90 91 90 89 88 87 85 85 84 83 82 81 80 78 76 74 73 73 73 73 74 77
67 67 68 69 72 75 76 75 76 78 80 83 85 87 87 87 89 89 88 88 89 90 93 95 90 80 81 89 91 91 93 94 96 96 96 97 97 98 99 100 101 102 102 101 101 101 101 101 101 101 101 100 100 100 100 99 99 98 98 97 95 94 94 93 93 92 91 89 89 87 86 84 84 82 81 80 80 79 76 74 73 73 73 73 73 74
66 65 64 64 66 69 71 71 72 72 74 78 82 84 85 85 87 89 90 89 88 88 91 94 92 86 86 91 91 90 92 94 96 96 97 98 99 100 101 103 104 105 105 105 104 103 103 103 103 103 102 101 100 100 100 100 100 100 99 98 96 96 96 96 94 93 91 89 89 89 87 85 84 81 80 79 79 78 76 73 72 72 73 73 73 73
62 60 59 58 58 59 61 63 65 66 69 73 77 80 81 83 85 86 88 89 88 87 89 92 93 90 90 93 92 91 93 95 96 98 99 101 102 103 104 104 105 106 106 106 106 105 104 104 104 103 102 100 99 99 99 99 100 100 99 98 97 97 97 96 95 94 92 90 88 87 87 86 84 81 79 78 78 77 75 72 71 71 71 72 73 73
59 59 59 60 60 57 54 53 55 57 62 67 70 73 76 79 81 82 84 86 87 86 87 90 94 93 92 93 93 93 94 96 97 99 101 103 104 104 104 104 105 105 105 104 104 104 103 102 102 102 101 99 98 96 96 95 96 96 95 95 94 94 95 95 94 94 92 90 88 85 85 85 83 80 78 77 76 75 74 72 70 69 69 70 71 72
56 58 60 63 67 67 63 61 61 60 61 64 65 68 73 77 79 80 81 84 87 87 85 87 92 94 93 93 94 95 96 97 99 100 100 102 103 104 104 104 103 103 102 101 101 100 100 99 99 98 97 96 95 93 91 90 90 91 91 90 89 90 90 90 91 90 90 90 88 85 83 82 81 80 78 76 74 72 72 71 69 68 67 67 68 70
56 58 59 63 69 71 69 69 71 70 70 70 68 68 72 75 77 79 81 83 87 89 86 85 90 95 95 96 97 99 100 100 100 101 100 101 102 103 103 102 101 99 98 97 96 95 93 92 91 91 90 90 90 89 88 87 86 86 87 86 86 86 87 87 88 88 88 87 86 84 82 81 80 79 78 76 74 72 70 69 67 67 66 66 67 68
58 58 58 61 68 70 69 69 71 73 73 74 73 72 73 75 77 78 80 83 86 90 89 88 91 95 98 100 101 102 103 102 101 101 101 102 102 102 100 98 95 92 90 89 89 87 86 84 83 83 82 82 82 82 82 81 81 81 80 80 81 81 82 83 85 86 87 87 87 85 83 81 80 79 78 77 76 74 71 67 65 65 66 65 65 66
61 62 59 60 66 70 69 69 72 73 73 74 75 76 76 77 78 79 80 82 85 89 92 93 95 98 100 102 102 103 105 105 103 102 101 102 101 99 95 90 86 83 82 82 82 81 81 80 80 79 78 78 77 76 76 75 75 75 74 74 74 74 75 76 78 79 81 83 84 84 83 80 78 77 77 76 75 74 72 67 64 63 65 65 65 65
65 66 64 61 64 69 69 69 71 73 73 73 74 77 78 79 80 81 82 83 86 89 93 96 97 98 100 102 103 104 105 104 102 99 97 97 97 94 89 85 83 81 80 80 80 80 80 80 79 79 78 77 76 75 74 73 73 72 72 71 70 70 71 72 73 74 76 77 79 80 80 78 76 75 74 73 73 73 71 69 65 63 63 64 64 63
70 71 70 66 65 69 69 68 71 73 73 74 75 76 78 79 80 82 83 84 86 89 92 94 96 97 98 99 100 100 99 98 96 93 93 93 92 89 86 84 83 82 80 79 78 77 77 76 76 75 75 75 74 73 72 71 70 69 68 68 67 67 68 69 71 72 73 74 75 76 75 75 74 73 71 70 69 69 70 69 66 64 63 62 61 61
78 78 78 74 69 69 69 67 69 72 73 74 75 75 76 79 81 83 86 87 89 92 94 95 96 97 96 96 95 93 93 93 91 89 89 88 85 83 81 80 79 77 75 74 72 71 71 70 70 69 69 69 68 68 68 66 65 64 64 63 63 63 64 65 66 68 70 71 71 72 72 71 71 70 69 67 65 65 67 68 66 65 64 62 59 59
84 84 85 82 75 71 70 69 69 71 72 73 75 76 78 81 83 85 88 90 92 95 97 98 97 98 98 97 96 93 91 89 88 87 86 82 78 75 75 75 74 72 71 70 68 67 67 66 66 66 65 64 63 62 62 61 60 59 59 59 59 59 59 60 61 63 65 66 66 67 69 69 68 67 66 65 62 61 62 65 66 66 65 63 60 58
88 89 90 90 84 77 75 74 72 72 74 76 78 80 81 84 87 88 90 93 95 96 97 98 98 98 99 98 97 93 90 89 89 89 88 84 80 77 73 72 72 71 70 69 68 68 67 66 65 64 64 63 61 60 59 58 57 56 56 57 57 56 56 57 58 59 60 60 61 63 65 65 64 63 62 62 60 58 57 60 63 65 64 63 61 59
91 92 93 93 91 84 80 80 78 77 80 82 83 83 84 86 89 90 89 91 95 98 98 98 97 98 98 97 97 95 93 91 90 91 89 84 82 79 74 72 71 70 69 68 67 67 66 65 64 62 61 61 60 59 57 56 56 56 56 56 55 55 55 56 56 56 55 55 57 59 60 60 59 59 59 59 59 57 55 56 59 62 62 61 59 58
93 95 95 95 95 89 84 83 82 81 82 84 85 85 85 86 88 88 87 89 94 98 99 99 98 97 97 96 95 93 90 85 83 84 84 80 77 75 71 69 68 67 67 66 64 63 62 62 61 59 58 57 56 55 54 54 54 54 53 52 51 51 52 53 53 54 53 52 52 52 54 54 53 54 55 56 57 56 54 53 55 58 59 58 57 56
95 97 98 97 98 94 89 86 84 81 81 83 84 86 88 89 92 94 94 94 97 99 100 100 99 96 94 91 88 85 81 76 73 75 76 74 72 71 70 68 67 65 64 64 62 62 61 59 59 57 55 55 56 55 54 54 54 53 51 49 48 46 47 48 50 51 51 50 48 48 48 48 47 48 51 52 54 54 53 51 51 53 56 57 57 56
97 99 101 100 101 99 94 91 89 87 86 88 89 91 93 94 96 99 99 98 99 100 100 98 94 90 86 82 79 78 74 68 65 67 69 69 69 68 68 68 68 66 64 63 60 59 59 59 58 58 57 57 57 57 56 55 54 53 51 49 47 45 44 45 46 47 47 47 45 44 44 43 43 44 46 48 50 51 51 50 48 50 53 56 56 55
97 98 100 101 101 101 98 95 95 94 94 95 96 97 98 99 100 101 99 98 98 97 94 91 88 85 81 77 75 74 72 67 63 63 64 65 65 66 65 64 64 63 62 61 59 58 58 59 60 60 60 59 58 57 56 55 54 52 50 48 46 44 43 43 43 44 45 45 43 42 41 40 40 41 42 44 46 47 48 47 46 48 50 53 54 53
97 98 100 101 102 102 100 96 96 97 98 99 100 100 102 103 103 102 101 99 97 96 93 91 88 84 80 77 75 74 73 71 66 64 63 62 63 64 63 61 59 58 57 57 57 57 58 59 60 59 59 57 56 55 53 52 52 51 48 46 44 42 41 41 41 42 43 43 43 42 40 39 38 39 39 41 43 44 44 43 43 44 46 48 50 50
99 99 100 101 103 104 102 97 96 98 100 101 101 102 104 105 104 104 105 104 104 102 98 95 92 87 82 79 78 76 75 73 71 69 67 66 65 65 63 61 60 59 59 58 58 57 58 59 59 59 58 56 54 52 51 50 50 50 47 45 42 40 39 39 39 40 41 42 42 41 40 39 37 37 38 38 40 41 41 40 40 40 41 44 46 46
103 102 103 104 105 105 104 99 96 98 101 105 106 105 107 109 109 109 109 108 108 107 102 97 94 90 84 80 79 78 76 74 73 72 71 70 69 67 65 62 61 61 61 61 62 61 60 60 60 60 59 57 54 52 50 48 49 49 46 43 41 39 37 36 37 38 39 40 40 40 39 38 37 36 36 37 38 39 40 39 37 36 36 39 42 43
109 108 108 109 108 107 106 103 101 104 108 111 112 111 111 113 114 113 112 109 108 106 102 97 94 90 85 80 79 78 76 74 73 72 71 71 70 68 65 63 61 60 61 61 61 61 61 60 61 61 59 57 55 52 49 47 47 47 46 43 40 37 36 36 36 38 39 39 39 38 38 37 37 36 36 36 37 38 38 38 36 33 33 36 39 40
112 112 111 112 113 114 112 108 108 112 114 113 113 112 111 110 111 110 108 106 104 102 99 94 90 87 83 79 78 77 75 73 72 71 70 69 68 65 64 63 61 60 60 60 60 60 60 60 60 60 60 59 56 52 49 46 45 45 44 42 39 37 37 37 37 38 38 38 38 38 37 36 36 35 35 35 35 36 36 36 34 32 31 33 36 36
114 114 114 115 116 116 115 110 108 110 111 108 106 104 103 102 103 104 103 101 99 98 95 90 85 82 80 77 75 74 73 70 69 69 68 66 64 62 61 60 60 59 58 59 59 60 60 60 59 58 58 58 56 53 49 46 44 43 42 41 38 37 38 38 38 38 38 37 37 37 36 35 34 34 33 33 33 34 34 34 32 30 29 30 31 31
116 117 116 116 114 112 109 104 99 100 104 103 101 99 98 98 99 100 99 96 93 92 91 88 83 80 78 75 73 72 71 68 66 66 65 63 61 59 58 57 57 57 57 57 57 58 58 58 59 58 57 57 56 53 50 48 45 42 41 40 38 37 38 39 39 38 37 37 37 37 36 35 33 32 31 30 30 31 31 31 30 28 27 26 26 26
117 117 115 114 112 110 107 100 95 96 101 103 100 98 95 93 92 93 93 90 87 86 86 85 81 78 77 75 72 71 71 68 65 63 63 61 58 55 54 54 55 55 55 55 55 56 55 55 56 56 55 54 54 52 50 48 46 44 42 40 38 38 39 40 39 38 37 36 36 36 35 34 32 31 29 28 27 27 27 27 26 25 24 23 23 23
117 118 116 113 112 111 107 101 95 92 94 97 96 94 91 88 87 88 88 87 85 83 83 83 81 79 77 74 71 70 70 68 66 64 62 60 57 54 54 53 54 54 54 54 54 54 53 53 54 53 52 52 51 49 48 47 46 45 44 42 40 39 39 40 39 38 36 35 34 34 33 32 30 28 26 25 24 23 22 22 21 20 19 19 19 19
121 121 119 114 110 107 104 100 96 92 93 96 99 98 95 92 91 90 90 89 88 85 83 81 79 79 79 77 72 70 70 69 67 65 64 61 58 56 54 54 54 54 53 52 53 53 52 51 51 51 50 50 49 47 46 45 44 43 43 42 40 38 38 39 39 37 35 34 33 32 31 30 28 26 23 22 20 19 18 17 16 16 15 15 15 14
124 124 122 117 114 111 108 108 108 107 106 107 109 108 104 100 98 98 96 94 91 88 84 80 77 76 77 77 75 71 69 68 66 65 65 63 59 56 55 54 54 54 52 50 50 52 51 50 49 49 48 49 48 46 45 44 43 42 41 41 39 38 37 37 37 36 35 34 32 31 30 28 26 24 21 19 17 16 15 14 13 12 11 11 11 11
125 127 127 125 123 119 115 114 115 116 115 115 116 116 113 109 106 105 103 100 96 92 87 82 78 73 71 72 72 70 67 66 64 63 62 62 59 56 55 54 53 53 52 49 48 48 48 48 47 47 46 46 46 46 45 44 43 41 40 40 38 37 37 36 36 35 35 34 33 31 29 27 25 23 20 17 15 13 12 11 10 9 8 8 8 8
Wind_Direction
285 285 285 286 286 287 287 288 288 288 288 288 289 289 289 289 290 290 290 290 291 291 291 291 291 291 291 291 291 292 293 293 293 292 291 291 291 291 291 291 291 291 291 291 291 291 290 290 290 290 290 290 290 290 290 290 290 289 289 289 288 288 288 288 287 287 287 287 287 286 286 286 286 286 286 285 285 285 285 285 285 285 285 285 284 284
287 287 287 288 288 289 289 289 289 289 289 289 289 289 290 290 290 290 290 290 290 291 291 291 291 291 291 291 292 292 293 293 292 292 292 292 292 291 291 291 291 290 290 290 290 290 290 290 290 290 289 289 289 289 289 289 288 288 288 287 287 287 287 287 287 287 287 287 287 287 287 287 287 286 286 286 286 285 285 285 285 285 285 285 284 284
288 289 289 289 289 290 290 290 290 290 290 290 290 290 290 290 290 291 292 292 292 292 292 292 292 292 291 291 292 293 293 292 292 292 291 291 291 291 290 290 290 290 289 289 289 289 289 289 289 289 288 288 288 287 288 288 288 287 287 287 287 287 287 287 287 287 287 287 287 287 287 287 287 286 286 286 286 285 286 286 286 285 285 285 284 284
290 290 290 290 290 290 290 291 291 291 291 291 291 291 291 291 292 292 293 293 293 292 292 292 293 292 291 291 292 293 292 291 291 291 291 291 291 291 291 290 290 290 289 289 289 289 289 289 289 289 289 288 288 289 289 289 289 288 288 288 288 288 288 288 288 288 288 288 288 288 287 287 287 287 287 286 286 286 286 286 286 285 285 285 285 285
291 291 291 291 291 291 291 292 292 293 293 293 293 293 293 293 293 292 292 292 292 292 292 293 294 294 293 292 294 293 292 292 292 291 291 291 291 290 290 289 289 289 289 288 288 288 288 288 288 288 289 289 290 290 290 289 289 289 289 289 289 289 289 289 289 289 289 289 289 288 288 288 288 287 287 287 287 287 287 286 286 286 286 286 286 286
292 292 291 292 292 292 292 293 294 294 295 295 295 295 294 294 293 293 293 293 293 293 294 294 294 295 294 295 295 294 293 293 292 292 292 292 291 291 290 290 289 289 289 289 289 289 289 289 289 289 289 290 290 290 289 289 289 289 289 289 289 289 289 289 289 289 289 289 289 289 289 289 288 288 288 288 288 288 288 287 287 287 287 287 286 286
292 292 293 293 293 294 295 295 295 294 294 294 294 294 294 294 294 295 295 295 295 295 295 295 295 294 294 294 294 293 292 292 292 292 292 292 292 292 292 291 291 291 291 291 291 291 291 291 291 291 291 290 290 290 290 290 290 289 289 289 289 289 289 289 289 289 289 289 289 289 289 289 289 289 289 289 289 289 288 288 288 288 287 287 287 287
294 295 295 295 295 295 295 295 295 294 294 294 294 295 295 296 296 297 297 297 297 297 296 296 295 295 294 294 293 292 292 292 292 292 292 292 292 292 292 292 292 292 292 292 292 292 291 291 291 291 291 291 290 290 290 289 289 289 289 289 289 289 289 289 289 289 289 289 289 289 289 289 289 289 289 289 289 289 289 289 288 288 288 287 287 287
297 297 297 296 296 296 295 295 295 296 296 297 297 297 297 297 297 298 298 298 299 298 298 297 296 295 295 294 294 293 293 293 292 293 293 293 292 292 291 291 291 291 291 291 291 291 291 291 290 290 290 290 289 289 289 289 288 288 288 288 288 288 288 288 288 288 288 288 288 288 288 288 288 288 288 288 288 288 288 289 288 288 288 288 288 287
297 297 297 297 297 298 298 298 298 299 299 298 299 299 298 298 298 298 299 299 300 299 298 298 297 296 296 295 294 294 294 294 293 293 293 292 291 291 290 290 290 290 290 290 290 290 290 289 289 289 288 288 287 287 287 287 287 287 287 287 287 288 288 288 288 288 288 288 288 288 288 288 288 288 288 288 288 288 288 288 288 288 288 288 287 287
298 299 300 301 301 301 301 300 300 299 299 299 299 299 299 299 299 299 300 300 300 299 299 298 298 297 297 296 295 294 294 294 294 294 293 292 291 291 291 290 291 291 291 291 291 291 290 290 289 288 287 287 286 285 285 285 285 285 285 286 286 286 286 286 286 286 286 286 287 287 287 287 287 287 287 287 287 287 287 287 287 287 287 287 287 287
303 303 303 303 302 302 301 301 301 300 300 300 299 299 299 299 299 299 300 300 300 299 298 298 298 298 297 297 296 295 295 295 295 294 294 293 292 292 292 292 292 291 291 290 290 289 289 288 288 287 286 285 284 284 283 283 283 283 283 283 283 283 284 284 284 284 284 284 284 284 284 284 284 284 285 285 285 285 285 285 285 285 285 284 285 285
304 304 303 303 302 302 302 302 302 302 302 301 300 299 299 298 298 298 298 298 298 298 297 297 298 298 298 297 296 296 297 297 296 295 294 293 293 293 293 293 292 292 291 290 289 288 287 286 285 285 284 284 283 283 282 282 282 282 282 281 281 281 281 281 281 282 282 282 282 282 282 282 283 282 282 282 282 283 283 283 283 283 283 282 282 283
303 303 303 303 303 302 302 302 302 301 301 300 299 299 298 298 299 298 298 297 297 297 298 299 300 299 298 296 296 297 298 298 297 296 296 295 295 295 295 294 294 293 292 291 290 289 288 287 286 286 285 285 285 284 284 283 283 282 282 281 281 280 280 280 279 279 279 280 280 280 281 281 281 281 281 281 281 281 281 282 282 282 281 281 281 281
304 304 304 303 303 303 302 302 302 301 301 300 300 300 300 301 301 301 301 300 299 299 300 301 302 301 299 296 296 298 299 298 297 297 297 297 297 296 295 295 294 293 292 292 292 291 290 289 288 288 289 288 288 288 288 288 287 286 285 285 284 283 282 281 280 279 279 279 279 279 279 278 279 279 279 280 280 280 281 281 281 280 280 280 280 280
306 305 305 304 304 303 303 304 304 303 303 302 302 302 302 303 304 305 304 304 303 303 304 304 305 305 303 300 299 300 301 300 300 299 300 300 299 299 298 297 296 295 295 295 295 294 293 292 291 292 292 291 291 291 291 291 290 289 289 288 288 287 286 285 284 284 283 282 282 280 280 279 278 278 278 278 278 279 279 280 280 280 279 279 279 279
307 307 306 306 305 305 305 306 306 305 304 304 303 304 305 306 307 307 306 305 305 306 307 307 307 308 304 301 303 305 304 305 305 305 306 306 305 304 302 301 301 300 300 300 299 298 297 296 296 296 295 294 294 293 293 292 292 291 291 291 291 290 290 290 290 289 288 287 286 284 283 282 281 280 279 278 277 276 277 277 278 278 278 278 278 279
308 309 308 308 308 307 308 308 307 307 306 306 306 307 308 309 309 309 308 307 306 307 308 310 311 310 302 301 306 307 306 307 308 308 308 306 305 305 304 304 303 303 302 301 300 299 299 299 299 298 298 297 296 295 294 294 293 293 292 292 292 292 292 292 292 292 291 290 288 288 287 285 284 283 282 280 279 277 276 276 275 276 276 276 277 277
311 311 310 310 309 309 310 311 311 311 311 311 311 311 311 312 312 312 311 310 310 311 311 312 314 309 300 302 309 309 308 309 309 307 305 304 304 304 303 302 302 302 301 300 300 300 300 300 299 299 298 297 297 297 296 296 295 294 294 293 292 292 292 292 292 291 291 290 290 289 288 287 286 285 284 283 282 280 279 278 277 275 274 274 274 274
313 313 312 312 312 312 314 315 316 315 314 314 313 313 314 315 315 315 314 314 314 314 314 314 315 308 299 302 308 308 308 309 308 306 305 304 303 302 301 301 301 301 301 300 300 300 300 299 299 299 298 297 297 296 296 296 296 295 295 294 294 293 293 292 292 291 290 290 289 289 288 287 287 286 285 284 283 283 282 281 280 278 276 275 274 273
316 317 318 317 317 317 319 319 318 317 315 314 314 315 316 316 315 315 314 313 314 314 313 314 314 309 301 303 307 307 307 306 305 305 304 304 303 301 301 300 300 300 300 300 300 300 300 299 299 299 298 298 297 296 296 296 296 296 295 295 294 294 294 293 292 291 290 289 289 288 287 286 286 285 285 284 284 283 282 281 281 280 279 277 276 275
322 323 323 321 319 319 320 320 318 316 315 314 315 315 315 314 313 312 312 311 311 311 310 311 312 309 303 303 305 305 304 303 303 303 302 302 301 301 300 300 300 300 300 300 300 300 300 299 299 298 298 297 297 297 296 296 296 295 295 295 294 295 294 293 291 290 289 289 289 288 287 286 285 284 284 283 283 282 281 280 280 279 279 278 277 276
325 325 323 319 317 317 319 318 316 315 313 313 313 312 312 310 309 309 309 310 310 309 308 308 309 308 305 304 305 303 302 302 302 301 301 301 301 301 301 300 300 300 300 301 301 300 300 299 299 298 298 297 297 296 296 296 295 295 295 294 294 294 293 292 291 290 289 289 288 288 287 286 285 284 283 283 282 281 280 279 278 278 278 278 277 277
323 321 319 315 313 314 316 316 315 313 311 309 308 308 307 306 306 307 307 308 309 308 308 307 307 307 306 306 305 303 302 302 302 302 301 301 302 301 301 300 300 300 300 300 300 300 300 299 298 298 298 298 297 296 296 295 294 294 294 294 294 293 292 291 290 290 289 289 288 287 287 286 285 284 283 282 281 280 279 278 277 276 276 276 276 276
322 321 319 316 312 310 310 308 306 305 304 304 305 305 305 305 306 307 308 308 308 308 308 308 307 307 306 305 304 303 302 302 301 301 301 301 301 301 301 300 300 300 300 300 300 299 299 298 298 298 298 297 296 296 295 294 293 293 292 292 292 291 291 290 290 289 289 289 288 287 285 285 284 283 282 281 280 279 279 278 276 275 274 274 274 274
325 325 325 323 320 318 318 316 313 311 309 309 311 311 309 309 309 309 309 309 308 308 308 307 306 306 305 305 304 303 302 301 300 300 300 300 300 300 300 300 300 300 300 300 299 299 298 297 297 297 296 296 296 295 295 294 293 292 292 291 291 290 289 288 288 287 287 287 286 285 284 283 282 282 281 280 279 278 277 276 275 273 273 273 272 272
330 330 331 331 329 327 328 328 326 324 321 319 319 317 315 313 313 312 312 311 309 308 308 308 306 306 305 305 304 303 302 302 301 302 302 301 301 300 300 300 301 301 301 300 299 298 297 296 296 295 295 294 294 294 294 293 292 291 290 289 288 287 287 286 286 286 286 285 285 284 283 282 281 281 280 280 279 277 276 274 274 273 272 271 271 270
334 334 335 336 333 330 331 332 330 328 327 325 324 321 319 317 316 315 314 313 311 310 309 308 307 306 306 306 305 305 304 304 305 305 305 304 303 302 302 302 301 301 301 300 299 298 298 297 296 295 295 294 293 293 292 292 291 289 288 288 287 286 285 285 284 284 285 285 285 284 283 282 281 280 280 280 279 278 276 274 273 272 271 269 269 269
338 338 338 339 337 334 334 335 333 331 330 329 327 324 321 319 317 316 315 314 312 311 310 310 308 308 307 307 307 307 307 307 307 307 307 305 304 303 303 303 304 304 304 302 301 301 301 301 300 299 299 297 296 295 294 294 293 292 291 290 289 288 287 285 284 283 283 283 283 283 283 282 281 280 279 278 278 277 277 275 273 271 270 269 268 267
342 341 341 342 342 338 337 337 335 332 331 330 328 325 323 321 320 318 317 316 314 312 311 310 309 308 308 308 308 308 307 307 307 308 307 306 305 306 307 309 310 309 308 306 306 305 305 304 303 303 302 301 300 300 299 298 297 297 296 295 294 292 290 287 285 284 282 281 281 281 281 281 280 279 278 276 276 276 276 276 274 271 269 267 267 266
346 345 344 345 345 341 339 339 337 334 332 330 328 326 324 322 320 318 315 313 311 309 309 309 309 309 308 307 306 306 307 308 310 311 311 309 309 310 312 312 311 310 309 308 307 306 305 304 303 303 302 301 300 300 299 298 298 297 296 295 294 291 289 287 285 284 282 281 280 280 281 281 280 280 279 277 276 275 275 275 274 272 270 267 265 264
348 348 347 346 346 343 340 339 337 334 333 331 328 325 322 320 318 316 314 312 311 310 310 311 310 309 309 308 309 311 312 313 314 313 311 310 310 312 313 312 310 309 308 307 306 305 305 304 304 303 302 301 300 300 299 299 299 298 297 295 293 291 289 287 286 284 282 282 282 282 281 281 280 280 279 278 275 273 273 273 273 273 271 269 265 263
349 349 348 347 346 344 341 339 338 335 332 329 326 323 321 319 317 316 315 315 315 314 313 313 313 313 314 315 316 317 317 316 316 315 313 312 314 315 314 313 312 311 310 310 309 309 309 308 307 306 304 304 303 302 302 302 301 300 298 297 295 293 292 290 288 286 284 284 284 282 281 280 280 280 280 279 277 273 271 271 271 271 271 270 268 265
349 349 349 347 346 345 343 340 340 336 332 328 326 325 323 321 320 319 320 319 317 315 314 316 317 317 318 318 319 320 320 321 321 319 318 318 319 319 319 317 316 315 315 314 315 314 313 312 311 310 309 309 308 308 308 307 306 304 303 301 299 298 296 293 290 288 287 285 283 281 281 280 281 281 281 280 278 275 270 268 268 268 268 268 268 266
348 349 349 347 346 346 344 341 340 338 335 332 331 329 327 326 323 321 320 320 319 318 318 319 320 320 321 322 323 323 323 324 323 320 319 320 320 320 320 319 317 317 317 317 317 316 314 313 313 313 313 313 312 312 311 310 309 307 305 302 300 298 295 294 292 290 288 286 283 283 283 283 283 282 281 279 278 276 272 267 266 266 266 266 265 264
348 348 349 348 346 346 345 343 341 341 338 335 332 330 327 325 321 318 318 321 322 321 321 322 323 325 325 325 324 323 322 323 322 318 317 318 318 318 318 318 317 318 317 316 316 316 315 315 316 316 315 314 313 313 312 311 309 307 304 301 298 294 292 292 292 291 291 289 288 287 286 286 285 284 281 279 278 277 274 270 266 265 265 265 263 262
348 348 348 349 347 346 346 344 341 339 336 333 331 328 326 324 323 322 324 327 325 323 324 325 327 327 325 324 323 321 321 322 321 317 316 317 318 318 318 318 318 318 317 317 318 318 319 319 318 318 317 317 317 317 315 313 310 308 306 304 301 296 293 291 292 292 293 294 293 291 290 289 288 285 282 280 279 278 276 273 269 267 266 265 263 261
348 348 348 349 348 347 346 344 341 339 337 334 334 332 329 329 328 327 329 329 327 325 325 326 326 324 323 323 323 321 321 322 322 319 318 319 320 320 320 320 320 320 320 320 321 321 320 320 320 320 321 322 321 318 316 314 312 310 309 308 305 302 298 296 296 296 297 297 297 296 294 292 290 286 283 281 279 278 278 276 272 268 266 265 265 264
348 349 348 349 349 348 347 345 343 341 340 338 338 336 333 332 331 329 329 329 327 325 325 325 325 325 326 327 327 325 324 325 325 323 322 322 322 321 321 321 320 321 321 322 324 324 323 323 323 323 324 324 322 319 317 316 313 312 311 309 308 306 304 302 301 301 301 300 300 299 297 295 293 289 286 283 281 280 279 278 275 271 268 267 267 267
348 349 348 349 349 349 348 346 344 342 342 340 340 338 335 333 332 330 328 328 326 326 328 329 329 330 331 332 331 329 328 328 328 327 326 325 324 323 322 322 322 321 322 324 325 326 325 324 325 325 325 325 322 320 318 317 315 314 313 311 309 308 307 306 305 305 305 304 303 302 301 299 296 292 289 286 283 282 281 280 277 273 271 269 268 267
348 348 348 349 350 349 348 347 345 344 343 342 342 340 336 333 333 332 330 330 330 331 333 334 333 334 336 336 334 332 331 331 330 330 329 329 328 326 326 326 326 326 327 328 328 328 327 326 326 326 327 326 324 322 321 320 318 317 315 313 312 310 309 310 310 309 308 307 305 305 303 301 298 295 291 288 285 284 282 280 277 274 271 269 268 267
347 348 349 350 350 350 349 347 345 344 344 344 343 342 338 335 335 335 334 334 334 334 335 336 335 335 337 338 336 334 333 333 331 331 331 331 330 329 329 329 330 331 331 331 330 329 329 328 328 328 328 327 326 326 325 324 321 318 317 315 314 313 313 315 315 314 311 309 307 306 305 303 300 297 294 290 287 285 284 282 280 276 272 270 268 267
347 348 349 349 350 350 350 349 347 346 346 346 345 343 340 339 338 337 336 336 335 335 336 337 336 336 337 338 337 334 334 334 332 331 331 331 331 331 330 330 332 333 332 331 330 329 329 329 329 328 328 328 328 328 327 325 322 319 318 317 318 319 320 322 322 319 315 312 310 308 307 305 302 299 296 293 290 288 287 286 285 281 275 270 269 270
347 347 348 349 350 350 351 351 350 348 347 347 345 343 341 340 338 336 335 335 336 335 335 336 337 336 336 338 337 334 334 334 332 331 331 331 331 331 330 331 334 334 332 330 329 329 330 329 329 329 328 328 329 329 327 326 324 322 321 321 323 326 328 329 327 323 318 315 313 311 309 307 304 302 299 296 294 291 290 290 289 286 280 274 273 274
346 347 348 349 350 350 351 352 351 348 346 345 344 341 338 338 337 336 335 336 336 335 335 335 336 336 335 337 336 334 334 334 332 330 331 331 330 330 331 332 333 333 331 330 330 330 330 330 329 329 328 327 328 329 328 327 327 325 324 325 328 331 333 332 330 326 321 318 315 314 312 310 307 304 302 299 297 294 293 293 293 292 287 283 281 280
346 346 347 348 349 350 351 351 350 347 344 343 342 339 338 338 338 337 336 336 336 336 335 335 336 336 335 337 337 334 333 334 331 329 330 331 331 331 331 332 332 332 332 331 330 330 330 329 329 329 328 327 327 328 328 328 329 328 327 328 331 335 336 334 332 329 325 322 319 318 316 314 311 308 305 303 300 298 298 298 299 297 295 291 287 283
345 345 346 347 348 348 349 350 349 348 345 343 342 339 338 339 339 337 336 336 337 337 336 335 336 336 336 337 337 335 333 333 332 330 330 331 331 332 332 332 332 332 332 332 331 330 330 329 328 328 327 326 327 327 327 328 330 331 331 331 334 338 338 336 333 331 328 326 324 321 319 317 314 312 310 307 305 304 303 303 303 302 299 296 291 287
344 344 345 346 348 348 349 349 348 348 345 342 340 338 337 339 339 338 338 338 339 339 339 337 337 337 336 337 338 336 334 333 333 331 331 332 333 333 334 334 334 333 334 333 331 330 330 329 327 327 326 326 326 327 327 328 330 331 332 333 336 339 339 336 334 332 331 329 327 324 321 318 316 314 312 310 309 308 307 306 305 303 301 298 295 291
343 343 344 346 348 349 349 347 346 346 346 345 343 342 341 341 341 341 341 341 341 341 341 339 339 338 337 337 338 337 335 334 334 333 333 334 336 336 336 336 335 334 336 335 332 330 330 329 327 327 326 326 327 328 328 329 330 332 332 333 336 339 339 336 334 333 332 331 328 326 323 320 316 314 312 310 309 309 308 306 305 303 300 298 295 292
343 343 344 346 348 349 350 350 348 348 348 349 348 346 344 344 344 343 344 343 342 342 342 341 340 340 338 337 337 337 336 335 335 335 334 335 337 338 337 337 336 335 336 337 334 331 330 329 327 327 327 327 329 330 330 330 331 332 332 333 335 338 339 337 335 334 333 332 330 328 324 321 316 312 310 308 307 307 307 306 305 303 299 296 292 287
343 343 344 345 347 350 352 352 350 350 350 350 350 347 346 346 346 345 344 344 343 343 342 341 340 341 339 337 335 336 336 336 336 336 335 335 337 339 338 338 337 336 337 337 335 331 330 329 328 328 328 329 330 331 331 331 331 332 332 333 335 338 339 337 335 335 335 333 332 329 325 321 316 312 308 306 305 305 306 306 304 301 297 293 286 278